Wind_Speed
18 19 19 17 17 15 13 12 10 9 11 11 7 7 9 10 9 9 11 11 8 8 10 11 10 10 10 10 10 8 8 9 9 9 8 8 6 5 4 3 2 2 3 4 6 6 7 7 8 8 9 9 10 10 12 13 13 12 11 10 10 11 12 13 12 13 14 14 14 13 14 15 15 15 15 16 17 17 17 17 17 17 18 19 20
16 17 16 17 18 17 14 12 9 8 10 10 8 7 7 9 10 10 11 10 8 11 13 11 10 10 10 10 8 7 7 8 7 7 6 5 3 3 2 1 1 2 4 5 7 8 8 8 8 8 9 9 10 11 12 13 13 12 11 10 10 10 11 11 11 12 13 14 14 13 12 13 14 14 14 15 17 18 17 16 16 16 17 18 19
16 16 16 18 20 17 15 12 9 8 8 8 8 9 7 8 9 9 10 10 10 12 11 9 8 10 11 10 8 7 7 7 7 6 5 2 2 2 2 2 3 4 5 6 7 8 8 8 8 9 9 9 11 12 13 13 12 12 12 11 11 11 12 12 11 11 11 13 14 15 13 13 14 14 14 15 17 17 17 17 16 16 17 17 17
16 18 17 18 18 16 15 12 9 8 9 9 10 10 9 9 8 8 9 11 11 10 8 9 10 12 10 9 8 8 7 7 7 6 5 3 2 3 3 3 4 5 6 7 8 8 8 9 9 9 10 10 11 12 13 13 13 13 12 12 12 12 12 13 13 12 12 12 13 14 15 15 15 16 15 15 15 16 16 17 17 17 17 17 17
18 20 21 19 17 16 16 13 11 11 11 11 11 11 11 10 10 9 10 13 13 9 8 10 11 12 11 10 9 8 8 8 7 6 5 4 4 4 4 4 5 7 7 8 8 8 9 9 10 10 10 10 11 12 12 12 13 13 12 12 13 13 13 14 14 14 14 14 14 15 16 16 16 17 17 14 14 16 17 16 17 17 18 17 17
17 20 22 20 18 18 17 15 14 13 12 11 11 12 12 12 11 11 12 14 14 11 11 11 11 12 13 11 9 8 10 9 7 5 5 5 5 5 5 5 7 7 8 8 8 8 9 9 9 9 9 10 10 11 11 11 12 12 12 13 13 14 14 14 15 15 16 16 16 16 16 17 17 17 18 17 15 16 17 18 17 17 17 19 19
21 20 20 20 20 20 18 15 13 13 13 13 13 13 13 13 13 12 12 13 13 12 11 11 11 11 11 10 9 9 9 7 5 6 7 6 6 6 6 6 7 8 7 7 7 7 8 8 9 9 9 9 10 10 11 12 12 13 13 14 14 15 16 16 16 16 16 17 18 18 18 19 19 18 19 20 19 16 15 18 19 19 18 18 20
24 22 21 21 22 21 17 13 12 12 12 12 13 12 12 12 12 12 10 10 12 12 12 12 11 10 9 9 10 10 8 5 6 7 8 7 7 7 7 7 8 8 7 7 7 8 8 9 9 9 9 10 10 10 11 11 13 14 15 15 16 17 17 18 18 18 18 18 18 19 20 20 21 21 20 21 22 21 18 16 18 20 20 19 19
23 21 21 21 21 19 15 12 12 11 11 12 12 12 10 10 10 11 11 11 12 14 15 14 12 10 10 10 10 8 7 7 8 8 8 9 8 8 8 8 8 8 8 7 8 8 9 9 10 10 10 10 10 10 11 12 13 15 16 17 17 18 19 19 19 20 20 20 20 21 21 22 22 22 23 23 25 26 24 21 20 21 22 21 20
21 19 19 20 19 18 15 14 12 10 11 12 12 11 9 8 9 10 13 14 15 17 18 17 14 12 12 12 10 9 8 9 9 10 10 9 9 8 8 8 8 8 8 8 8 9 9 9 9 10 10 11 11 11 12 14 15 16 17 18 18 19 19 20 21 21 21 22 23 23 23 23 23 23 24 26 26 27 28 27 26 26 25 23 21
20 19 20 21 20 19 17 16 13 11 12 12 11 11 9 9 10 11 13 14 17 20 19 17 16 15 13 11 10 10 9 10 11 11 10 10 10 9 8 8 8 8 8 8 8 9 10 10 10 10 10 11 12 13 14 15 16 17 18 19 19 20 20 21 22 22 23 23 24 25 25 25 26 26 26 27 28 30 31 31 29 29 29 27 24
21 21 21 22 21 21 20 17 15 13 11 11 12 12 11 11 12 12 13 15 18 20 19 17 17 16 13 11 10 9 10 11 11 11 11 10 9 9 9 8 8 7 8 8 9 10 10 10 11 11 11 12 13 14 15 16 17 18 19 19 20 21 22 23 23 24 24 24 25 25 26 27 28 29 29 30 31 32 33 34 33 32 31 29 27
23 23 22 22 22 21 21 18 16 14 10 10 13 13 13 14 15 15 16 17 18 18 18 19 17 15 12 11 10 10 11 11 11 11 11 10 9 9 9 8 7 8 8 9 10 11 11 11 11 11 12 12 13 15 16 17 18 18 19 20 21 22 23 24 24 25 25 25 26 26 26 27 28 29 30 31 32 33 34 35 35 34 34 32 30
25 23 22 23 22 21 20 20 18 14 9 10 14 14 15 16 17 17 16 17 18 19 20 18 16 14 12 11 10 11 12 11 12 12 11 10 9 9 8 7 8 9 9 10 11 11 11 11 11 11 12 13 14 15 16 17 18 19 21 22 23 24 24 25 25 25 26 26 26 27 27 28 28 29 30 31 32 33 34 36 36 36 35 34 33
25 24 25 25 24 23 22 21 18 13 10 12 14 15 17 18 18 18 17 18 20 20 18 16 15 14 13 12 12 12 12 12 13 12 11 10 9 9 8 8 9 9 10 11 11 11 11 11 11 11 12 13 14 15 16 18 20 21 23 24 25 26 26 26 26 26 27 27 27 27 28 28 29 29 30 31 33 34 35 36 38 39 38 37 35
24 24 27 27 26 25 24 22 18 13 11 13 14 15 18 19 19 19 19 20 21 19 17 16 16 16 14 14 14 13 13 13 13 12 11 11 10 9 9 9 9 10 11 11 11 11 11 11 11 12 13 13 15 16 18 20 22 24 26 26 27 27 27 27 27 27 27 27 28 28 28 29 29 30 30 32 33 34 35 36 37 40 41 41 40
22 23 27 28 27 26 25 23 18 15 14 14 15 16 18 19 19 19 19 19 20 19 19 19 18 17 16 15 15 14 14 14 14 13 12 12 11 10 10 10 10 11 11 12 12 11 11 11 12 12 13 15 16 18 20 22 25 27 28 29 28 28 28 28 27 27 27 26 27 27 27 28 28 28 29 30 31 32 33 35 36 38 40 43 43
22 24 27 27 27 27 27 24 19 17 17 17 18 19 19 19 18 18 18 19 19 20 20 19 18 17 17 16 16 15 15 15 14 14 14 13 12 11 11 11 11 12 12 12 12 12 11 12 12 13 15 17 19 21 23 26 28 30 30 30 29 27 26 25 24 24 23 23 23 23 24 24 24 25 25 26 27 28 29 30 32 34 36 39 42
23 25 26 26 28 29 28 25 21 19 19 19 20 21 21 19 18 18 19 19 19 19 19 18 18 18 17 17 17 17 16 16 15 15 15 14 14 13 12 12 12 12 13 12 12 12 12 13 13 15 17 19 21 23 26 29 31 31 30 27 25 24 22 21 21 21 20 21 21 22 23 23 23 23 24 25 26 26 27 28 29 30 32 34 37
23 24 24 26 29 30 28 25 21 20 20 21 22 23 21 18 17 18 18 19 19 19 18 18 18 18 19 18 19 18 17 17 17 17 17 16 15 14 13 13 13 13 13 13 13 12 13 14 15 17 19 21 23 26 28 30 30 28 26 23 21 20 20 20 21 21 22 22 23 24 24 25 25 25 26 27 27 28 28 29 30 30 31 33 35
25 23 23 26 30 30 28 25 21 22 23 23 23 23 21 19 17 17 17 18 19 18 18 18 19 19 20 20 20 20 19 19 19 19 18 17 17 16 15 14 14 14 14 14 14 14 14 16 17 19 21 23 25 27 29 29 27 24 21 20 20 20 21 22 22 23 23 24 24 25 25 26 27 27 27 28 29 29 30 30 31 32 32 33 35
26 25 25 27 30 30 28 25 23 25 25 23 22 23 22 20 18 17 17 17 17 18 18 19 19 20 20 20 21 21 21 21 20 20 19 19 18 17 16 15 14 14 15 15 15 15 16 17 19 21 23 24 26 27 27 25 22 20 19 20 21 21 22 22 23 24 24 24 25 25 26 26 27 28 28 29 29 30 30 31 31 33 33 33 35
27 26 26 28 30 29 28 27 27 27 25 23 23 23 22 21 19 17 16 16 17 17 18 19 19 19 20 20 21 22 22 22 21 21 20 20 19 18 17 16 15 15 15 15 15 16 17 18 20 22 24 25 25 25 23 21 20 19 20 21 21 22 23 23 24 24 25 25 26 26 27 27 28 29 29 30 31 31 31 32 32 33 34 34 35
28 27 27 28 29 28 28 29 30 27 24 23 24 24 22 21 19 18 17 17 18 19 19 19 20 20 21 21 22 23 24 23 23 22 21 21 20 19 18 16 15 15 15 16 16 17 18 19 21 23 24 24 22 21 19 19 19 19 20 21 22 23 23 24 24 25 25 26 27 27 28 28 29 30 30 31 31 31 32 33 33 33 34 35 35
30 29 28 29 29 29 31 32 30 27 25 25 26 25 23 21 19 18 18 17 18 19 19 20 20 21 22 23 24 24 25 24 23 23 22 21 20 19 18 16 15 15 15 16 16 17 18 20 21 23 22 21 19 18 18 18 19 20 21 22 22 23 23 24 25 25 26 26 27 28 28 29 30 31 32 32 32 33 33 34 35 35 35 35 35
30 30 30 30 30 30 32 32 30 29 28 26 26 25 22 20 19 18 16 15 15 16 16 17 18 19 20 21 21 22 23 23 23 22 22 21 19 18 16 15 14 14 15 15 16 17 18 20 21 21 19 18 17 17 17 18 19 20 21 21 22 22 23 23 24 25 25 26 27 28 29 31 32 33 34 35 35 35 35 36 36 37 37 37 37
29 30 31 31 31 31 32 32 32 31 29 26 24 23 21 21 20 18 14 13 14 15 14 15 15 16 17 18 19 20 20 21 21 21 20 19 18 16 15 14 14 14 14 15 16 17 18 19 19 18 16 16 16 16 17 18 18 19 20 20 20 21 22 22 23 24 25 27 28 29 31 32 33 35 36 37 37 37 37 37 38 38 39 39 39
28 29 32 32 32 33 34 34 33 32 29 25 22 21 21 21 20 17 14 14 15 14 14 15 17 17 17 16 17 18 18 19 19 19 18 17 16 15 14 13 13 13 13 14 15 16 17 17 16 15 14 14 15 15 16 17 17 18 18 19 19 20 21 21 23 24 26 27 29 29 31 32 33 34 35 37 38 39 38 38 38 38 38 39 40
28 28 32 35 35 36 36 35 36 34 29 25 22 20 20 22 21 19 17 15 14 15 14 16 18 19 19 18 17 16 16 17 18 17 16 15 14 13 13 12 12 12 12 13 13 14 13 13 13 12 12 13 13 14 15 16 17 17 18 18 18 19 21 22 23 25 26 28 28 29 30 30 30 31 32 34 35 37 38 38 38 38 38 38 38
27 26 31 35 36 36 37 36 36 34 29 26 25 23 23 23 23 24 22 18 16 16 15 17 18 19 19 19 18 16 16 16 16 16 15 14 13 12 11 10 10 10 10 10 10 10 10 11 11 11 12 12 12 13 14 15 16 17 17 18 18 19 21 22 24 25 26 27 27 28 29 29 29 29 29 31 32 34 36 37 38 39 39 39 39
26 24 28 34 35 36 37 37 35 33 29 28 30 27 25 24 24 24 23 20 18 16 16 17 18 17 17 17 16 15 16 16 15 14 13 12 11 10 9 9 8 8 8 7 7 7 8 10 10 11 11 11 12 13 14 15 16 16 16 17 18 19 20 22 23 23 24 25 26 27 28 28 28 29 29 31 32 34 35 35 35 36 37 38 39
27 26 26 32 35 36 36 35 35 34 32 32 32 27 24 24 23 22 21 19 17 16 17 19 19 17 16 15 14 14 15 15 14 12 12 10 9 9 7 7 6 5 5 4 5 6 8 9 10 10 11 11 12 13 14 15 16 16 16 17 18 19 20 21 22 23 24 25 25 26 27 28 29 30 31 33 34 35 35 33 32 32 32 34 35
28 28 26 28 33 35 34 34 36 35 33 32 30 25 24 24 23 21 20 18 18 18 19 19 18 17 15 14 14 14 14 13 12 11 10 9 8 7 6 5 4 2 2 3 5 7 8 8 9 9 10 11 12 13 14 15 15 15 16 17 18 19 20 21 22 22 23 24 25 27 28 29 30 32 34 36 37 38 37 34 31 30 29 30 31
25 26 26 28 31 32 32 34 35 33 30 29 27 25 24 24 23 22 20 19 19 19 19 18 16 14 13 12 13 13 12 12 11 11 10 9 8 6 5 3 2 1 2 3 5 6 7 7 8 9 10 10 12 13 13 14 15 15 16 17 19 20 20 21 22 23 23 24 25 27 28 30 32 34 36 38 40 40 40 38 36 34 32 32 32
21 21 24 27 28 28 30 32 31 28 26 27 27 27 27 25 23 21 19 19 19 20 19 17 14 12 11 11 11 11 12 12 12 11 10 8 7 6 4 3 2 2 3 3 4 4 5 6 7 8 9 10 11 12 13 13 14 16 17 18 19 20 21 21 22 22 23 24 26 27 29 31 34 36 38 40 41 42 42 41 40 38 37 37 37
17 19 21 23 24 24 26 27 25 24 24 25 28 31 30 27 22 19 18 18 19 19 17 15 12 11 10 10 11 11 12 12 12 11 10 8 7 6 5 4 4 3 2 2 2 3 5 6 7 8 9 10 11 12 13 14 15 16 17 18 19 20 21 21 21 22 23 24 26 28 30 33 35 37 39 40 41 42 42 41 41 40 40 39 38
12 15 17 18 19 21 23 24 23 24 24 24 29 33 30 24 19 18 18 18 18 16 14 11 10 9 9 10 11 12 12 12 11 10 9 8 7 6 5 5 5 3 2 1 2 3 5 6 7 8 9 10 11 12 13 14 15 16 17 18 19 20 20 21 21 22 22 24 26 28 31 33 35 37 38 39 40 41 41 41 40 40 39 38 36
10 13 16 18 19 21 23 24 24 25 24 24 28 28 21 16 16 18 17 17 16 13 10 8 8 8 9 10 12 12 12 11 10 9 8 8 7 7 7 6 5 3 1 1 2 3 5 6 7 8 9 10 11 12 13 14 15 16 17 18 19 19 19 20 21 21 22 25 27 28 31 33 34 36 37 38 39 40 41 41 40 39 39 37 35
11 13 17 21 22 23 24 24 24 25 23 22 24 22 17 15 17 17 16 15 13 10 8 8 8 9 10 11 11 11 11 10 10 10 9 8 8 8 8 7 4 3 2 2 3 4 5 6 8 8 9 10 11 12 13 14 15 15 16 17 18 18 18 19 20 21 22 24 26 28 30 32 33 35 36 36 38 39 39 40 39 38 38 38 35
14 15 17 20 22 23 24 25 25 25 24 23 23 22 20 18 17 15 14 12 11 9 9 10 10 11 11 12 11 11 11 11 12 12 10 10 10 10 8 6 4 3 3 3 4 5 5 6 7 8 9 10 11 12 13 14 14 15 16 17 17 17 18 19 20 20 22 24 26 27 29 31 32 33 34 35 36 37 37 38 38 39 40 40 37
16 18 21 22 22 22 23 23 24 25 25 25 24 22 19 16 14 12 12 12 11 10 11 12 12 12 12 12 12 12 13 13 13 12 12 13 12 10 7 5 4 4 4 4 4 5 6 6 7 8 8 9 11 12 13 13 14 14 15 16 17 17 18 19 20 20 22 24 26 27 28 29 30 31 33 33 35 36 36 37 38 38 40 40 38
17 20 23 24 23 24 24 24 25 26 26 24 21 18 15 13 11 11 12 13 12 11 12 12 13 13 14 14 15 15 14 14 14 14 14 14 11 9 6 5 5 4 4 4 5 5 6 6 6 7 8 9 10 11 12 12 13 13 15 16 16 17 18 19 20 20 22 24 26 26 28 28 29 31 32 33 34 35 35 36 36 37 37 38 39
18 21 24 25 24 25 26 26 28 27 24 21 17 15 13 12 11 12 13 13 13 13 13 14 14 15 16 16 16 15 14 15 16 16 15 13 10 8 7 6 5 5 4 5 5 6 6 6 6 7 7 8 9 10 11 11 12 13 14 16 17 18 18 19 20 21 23 25 25 25 26 27 29 31 31 32 33 34 34 35 35 36 37 38 38
19 23 27 27 26 26 27 27 28 25 21 18 17 15 13 12 13 14 14 15 16 15 15 15 15 16 16 16 16 16 16 17 18 16 14 11 9 8 7 6 5 5 5 5 5 5 5 5 6 7 7 8 9 9 10 10 11 13 15 16 17 18 18 19 20 21 23 24 24 24 25 27 28 30 30 31 32 33 33 34 34 35 37 37 38
21 25 27 27 27 28 27 26 26 24 20 19 18 15 13 13 15 16 16 16 16 14 14 15 15 16 17 17 17 17 18 19 17 15 13 11 9 8 7 6 5 5 5 5 5 5 5 5 6 7 8 8 8 8 9 10 12 13 15 16 16 17 18 18 20 22 23 24 24 24 26 27 28 29 29 30 31 32 32 33 34 35 37 38 39
24 27 26 26 27 28 26 26 26 24 21 19 17 14 13 15 16 17 17 15 14 14 15 15 16 16 17 18 18 19 20 19 17 14 12 10 9 8 7 6 5 5 5 4 4 4 5 6 6 6 7 7 7 7 8 10 12 13 14 15 16 16 17 18 20 22 23 23 23 24 26 27 28 28 29 30 31 31 32 33 34 35 37 38 39
26 27 27 29 31 30 29 29 27 24 22 20 16 14 16 18 18 17 16 15 15 15 15 16 16 17 18 19 20 20 20 18 16 13 12 11 9 8 6 6 5 4 3 3 3 4 5 5 5 5 5 6 6 7 8 10 12 12 13 14 15 16 17 18 20 22 22 22 22 24 26 26 27 28 29 29 30 31 32 33 34 35 36 37 38
28 29 29 32 32 31 31 30 25 22 21 18 15 16 19 20 18 17 16 16 16 16 16 16 17 18 19 20 21 21 19 17 14 12 11 10 8 7 6 5 3 2 1 2 3 4 4 4 4 4 5 5 6 7 8 10 11 12 13 14 14 15 16 18 20 21 21 21 22 24 25 25 26 27 28 29 30 31 32 33 34 35 36 36 37
31 32 32 33 32 32 32 29 24 21 20 17 16 19 20 19 18 17 17 17 16 16 16 17 18 20 21 22 22 21 18 15 13 12 11 9 8 7 6 4 2 1 1 2 3 3 3 3 3 3 4 4 6 7 8 9 11 11 12 13 13 14 16 18 20 20 20 21 22 23 24 25 26 27 28 29 31 32 32 33 34 35 36 37 37
33 34 34 33 32 33 32 28 24 22 19 17 18 20 21 19 18 17 17 17 16 17 18 19 20 21 22 23 22 20 17 15 14 13 11 9 8 7 5 4 2 1 0 2 2 3 3 3 2 2 3 4 5 6 7 8 9 10 11 12 13 14 17 18 19 19 19 20 22 23 24 25 26 27 29 30 31 32 33 33 34 35 36 36 37
34 35 36 35 35 35 32 29 25 21 17 18 20 21 20 19 18 17 16 16 17 17 19 20 21 22 23 23 21 18 16 16 15 13 10 9 8 6 5 4 2 1 1 2 2 2 2 2 1 1 2 3 4 5 6 7 8 9 10 11 12 14 16 17 18 18 18 19 21 22 23 24 26 27 28 29 30 32 33 33 34 34 35 36 36
Wind_Direction
213 212 213 215 213 214 222 227 232 243 244 239 230 224 228 232 231 226 226 229 231 232 234 234 233 228 227 229 227 221 205 192 191 198 208 203 165 142 164 178 195 247 289 300 308 309 307 306 309 315 317 321 324 325 328 328 328 331 334 334 331 333 331 328 326 323 322 319 319 322 318 313 315 316 314 314 315 317 317 314 312 314 314 311 303
221 219 216 214 209 207 214 218 219 229 233 229 227 234 244 246 242 235 235 237 229 231 239 240 233 219 213 221 225 220 209 200 198 198 205 197 152 143 182 204 262 285 296 304 308 307 308 310 314 319 321 323 326 328 329 329 332 332 332 332 332 332 330 330 329 327 327 325 325 328 324 319 319 321 323 322 320 320 322 322 321 321 319 316 310
227 226 221 214 209 206 211 212 204 214 222 221 228 235 249 256 251 243 239 241 235 232 235 231 222 217 213 213 213 211 207 204 201 203 217 212 164 202 237 261 285 294 301 304 307 306 307 310 314 319 322 326 328 330 330 331 333 333 332 332 332 334 333 335 336 334 330 326 328 330 330 327 323 325 331 331 327 325 326 326 325 322 319 317 317
222 221 214 208 211 211 214 206 191 211 224 224 232 237 249 262 261 251 240 240 243 237 223 205 206 215 215 208 201 200 203 204 201 201 214 233 239 256 275 289 294 301 306 307 308 307 308 311 316 321 324 326 328 330 330 331 333 333 334 334 333 334 335 337 339 340 336 329 328 327 327 328 326 324 328 332 330 326 325 325 325 324 321 321 321
217 211 199 199 212 216 213 200 188 209 223 223 236 243 247 256 258 251 237 234 235 230 215 204 199 196 193 192 186 183 194 200 199 204 218 241 261 273 285 294 300 305 308 308 308 308 310 313 317 322 322 323 326 328 330 332 332 332 334 334 332 332 334 335 336 337 338 335 331 327 324 326 326 323 323 326 328 324 322 322 324 324 323 324 324
202 197 190 196 210 214 210 200 196 212 221 221 234 240 238 243 247 240 232 230 226 217 212 209 198 184 179 181 176 177 194 196 194 219 249 260 269 280 287 294 298 304 306 305 306 308 311 313 315 317 315 317 323 326 328 330 329 330 331 331 329 329 330 332 332 333 334 334 331 329 327 323 323 324 323 323 324 324 321 319 319 319 319 321 322
190 190 193 203 209 210 207 202 202 212 218 219 224 227 230 235 237 233 228 225 220 211 205 201 195 184 174 173 180 193 201 198 205 236 255 263 271 279 281 288 295 301 305 302 303 306 308 311 310 308 306 309 318 323 326 327 327 328 328 327 327 326 326 327 327 328 328 328 327 327 326 323 323 325 322 319 317 318 319 316 315 315 315 316 317
191 190 196 205 207 205 202 198 200 206 213 216 216 216 223 229 230 230 224 214 207 199 190 187 185 180 176 178 190 201 204 212 233 245 258 266 268 271 278 290 299 304 305 302 304 307 309 309 306 304 302 304 312 320 323 324 323 324 323 322 322 322 322 322 323 323 322 322 322 321 321 320 321 321 319 316 313 312 312 309 308 310 312 314 315
190 190 197 202 203 201 199 197 197 201 205 207 207 205 210 221 228 232 222 204 194 186 180 179 178 181 187 190 196 205 218 235 245 253 263 267 267 272 283 295 302 304 305 305 307 309 309 306 304 303 301 302 306 311 315 316 317 319 318 318 318 318 319 319 319 319 318 317 316 316 316 315 316 315 313 312 311 311 311 309 307 306 307 312 314
188 195 200 201 201 199 199 198 195 197 199 199 202 202 205 211 217 219 211 198 187 180 176 175 175 181 185 187 197 213 229 241 251 259 265 269 272 277 288 298 303 304 303 305 307 306 304 303 301 300 299 300 303 306 311 314 315 316 315 315 315 315 316 317 316 316 316 315 314 313 312 311 310 309 308 308 308 306 306 307 308 307 306 310 311
196 205 202 201 204 202 202 201 198 197 196 200 204 204 204 202 202 204 202 190 178 174 174 172 172 179 185 191 204 220 235 246 255 262 268 271 274 282 294 302 304 303 301 302 302 301 302 301 299 300 301 303 306 310 313 315 316 316 316 315 315 315 315 314 313 313 312 312 311 310 310 309 308 307 306 305 304 303 302 304 305 304 304 306 306
204 208 205 205 205 203 205 203 200 198 196 201 202 201 201 196 196 198 190 179 173 173 174 173 178 187 196 206 218 232 244 253 259 264 269 272 276 286 296 301 301 299 298 299 301 301 303 303 304 305 307 309 312 315 316 317 318 318 318 317 316 315 313 312 310 309 308 307 306 306 306 305 305 304 304 303 302 302 302 302 302 302 301 302 302
206 206 206 208 208 209 211 207 202 200 197 196 195 197 201 196 191 187 181 177 174 174 178 183 193 203 208 218 231 244 252 257 262 266 270 273 279 289 295 299 296 295 296 299 302 305 308 309 310 312 313 315 317 318 320 321 322 322 321 320 318 315 313 311 309 307 306 304 303 302 301 300 300 300 300 300 300 300 300 299 300 299 299 298 298
209 208 209 212 213 214 214 211 205 201 196 193 192 195 198 194 188 183 182 182 178 181 191 198 206 215 219 229 242 252 257 261 263 266 269 272 280 289 293 292 290 295 301 304 307 309 312 313 314 316 318 319 321 322 325 325 324 324 322 321 319 316 314 311 309 307 305 303 302 300 299 298 297 297 297 297 297 297 297 296 297 296 295 295 295
212 212 211 214 215 213 213 211 204 200 199 196 196 197 195 190 187 186 189 192 190 194 203 210 215 220 228 238 247 252 256 259 261 265 267 270 279 285 287 287 292 300 304 307 310 311 314 316 316 318 319 321 323 325 326 325 324 324 323 322 319 316 314 312 311 309 307 305 303 301 300 298 297 297 297 296 295 295 295 295 295 296 295 294 293
209 208 211 214 214 212 213 210 203 201 204 204 206 203 195 191 192 194 197 202 204 207 211 215 220 226 233 241 247 252 254 257 261 265 266 268 276 281 284 288 294 302 306 308 311 312 314 315 316 317 319 321 324 324 325 325 325 324 323 321 319 316 314 312 311 309 308 307 305 303 302 301 300 299 297 296 295 294 294 294 294 295 295 295 294
205 205 209 212 212 212 212 209 203 200 203 207 207 201 196 196 200 203 206 209 212 213 215 219 224 230 237 244 250 252 254 258 263 266 267 267 273 280 285 289 296 302 307 308 310 311 312 312 313 315 318 321 323 324 326 326 326 325 323 321 319 316 314 313 312 311 310 310 308 307 306 305 305 303 301 298 297 295 294 293 293 293 293 294 294
202 202 207 209 210 211 209 206 200 196 200 205 203 199 200 204 207 210 214 216 217 219 222 227 231 236 241 246 250 251 253 259 265 268 269 268 271 278 284 288 295 301 304 306 307 307 308 309 311 314 317 321 323 325 327 328 328 326 324 322 320 318 318 317 318 318 318 318 317 317 316 316 315 313 310 307 305 303 301 298 296 295 294 294 294
200 199 203 208 210 210 209 206 200 195 198 202 201 201 203 208 212 215 219 222 224 227 230 235 238 240 244 247 250 251 253 260 266 270 271 269 269 274 280 286 292 298 302 303 303 304 306 307 309 314 318 321 324 326 328 329 329 327 326 325 325 326 327 327 328 329 329 329 328 326 325 324 323 320 318 315 313 312 310 308 306 304 301 298 297
205 202 204 207 209 210 209 207 203 198 200 203 204 203 203 209 214 218 223 227 231 234 237 241 243 243 246 248 250 251 254 261 267 270 272 270 269 271 277 283 289 295 299 301 303 304 305 307 310 315 318 321 324 327 328 330 330 330 331 331 333 335 335 335 335 335 334 333 331 329 328 326 324 322 320 318 316 315 314 313 311 309 307 304 303
208 207 208 207 208 209 207 206 203 200 203 206 206 204 204 210 215 220 226 229 233 238 241 245 246 246 248 249 251 251 253 259 265 269 272 271 269 270 274 280 287 294 299 302 303 304 305 307 311 314 318 322 324 327 329 331 333 334 335 336 337 338 338 337 336 335 334 332 331 329 328 326 325 323 321 319 318 317 315 314 312 310 309 307 305
207 208 212 211 210 208 207 207 203 201 207 210 208 205 205 210 216 221 226 230 234 239 241 244 246 248 249 251 252 251 253 259 264 268 271 270 269 269 272 278 286 294 299 301 302 303 304 307 311 315 319 322 325 328 331 333 334 335 336 337 338 338 337 336 335 333 333 332 331 330 329 328 326 324 323 321 320 319 317 315 313 311 309 308 306
208 208 213 215 213 210 210 209 203 203 208 210 210 208 208 211 217 224 230 235 238 241 243 246 248 251 253 254 253 253 255 259 264 267 268 268 268 268 271 277 286 294 298 299 300 301 303 307 312 316 320 323 327 331 332 333 333 334 336 337 338 337 336 335 335 334 334 334 333 332 331 330 328 326 324 323 322 320 318 316 314 312 310 309 307
213 210 210 215 214 212 210 207 203 205 208 210 212 211 211 213 220 228 236 242 246 248 251 253 256 258 259 259 256 255 256 259 263 265 265 265 266 267 270 277 286 292 295 297 300 301 305 310 314 318 321 325 329 331 332 333 334 336 338 339 339 338 337 337 336 336 336 335 335 333 332 330 329 327 325 324 322 321 319 316 314 313 311 309 308
216 211 209 214 214 212 210 206 205 208 211 213 213 213 213 215 223 234 240 243 246 251 255 259 261 263 264 263 257 254 255 257 260 262 262 263 265 266 271 277 284 290 293 297 300 303 308 312 316 320 323 327 330 332 333 335 337 339 341 340 340 339 338 338 338 338 338 337 335 334 333 331 330 328 326 325 324 322 321 318 316 314 312 310 308
217 212 210 212 214 214 212 209 208 211 214 216 216 215 215 218 228 238 239 238 242 248 255 259 262 264 264 262 257 254 254 256 258 259 260 262 264 266 271 278 284 290 294 298 301 306 311 315 318 322 325 328 331 335 337 339 341 342 341 341 340 339 340 340 340 339 339 338 338 337 337 335 333 332 330 328 327 326 324 321 319 317 314 312 310
220 213 209 210 212 214 213 211 211 211 214 216 216 217 218 222 232 236 232 234 240 245 253 261 267 267 264 261 256 254 254 255 257 257 259 261 263 268 274 281 286 291 295 300 304 309 314 317 320 323 325 329 334 339 342 343 343 342 341 340 340 341 342 342 342 342 342 342 343 342 341 339 337 335 333 331 329 328 326 324 322 320 317 315 313
222 215 211 211 212 214 213 213 213 212 212 213 213 215 219 224 230 228 226 234 241 246 256 269 275 274 270 265 260 258 256 256 256 256 258 261 264 270 277 282 287 291 297 302 308 314 318 320 321 323 327 333 339 343 345 343 342 341 340 341 343 344 344 344 345 346 347 346 345 344 343 342 340 338 336 334 331 329 328 326 324 322 320 318 316
220 218 214 213 213 215 217 216 215 213 209 208 212 218 222 223 222 219 222 231 240 247 262 275 278 274 270 267 265 263 258 255 254 254 256 260 265 271 277 281 287 293 300 307 312 317 320 320 322 325 331 337 342 344 343 341 341 341 342 344 347 347 347 348 349 349 348 347 345 343 343 343 342 341 339 337 336 333 332 330 328 325 323 320 318
226 221 216 215 213 215 218 219 218 215 208 207 215 222 223 222 218 217 221 231 241 250 264 275 276 270 264 262 263 261 257 253 252 253 255 260 265 271 276 281 289 297 304 310 316 320 321 322 323 327 334 340 343 342 341 341 341 342 344 347 349 350 350 351 351 349 347 345 344 343 343 342 341 341 340 341 341 340 339 336 334 330 327 325 322
232 226 219 216 214 214 218 221 222 216 210 212 217 220 222 222 221 221 226 236 245 252 264 273 273 268 260 257 256 253 251 249 249 252 256 260 265 269 274 280 289 298 305 313 320 324 325 325 326 331 337 341 342 342 342 342 343 344 347 350 351 352 352 351 350 348 346 345 344 343 342 342 341 341 343 346 347 348 346 342 338 334 331 329 327
231 233 226 218 216 216 217 221 222 216 213 217 219 219 223 224 225 228 233 240 248 257 266 269 269 266 260 254 251 247 246 247 250 254 258 261 263 266 269 276 286 296 305 318 328 330 329 328 329 334 338 341 342 343 343 343 344 346 349 351 352 352 352 350 348 347 347 346 345 345 344 344 345 347 349 352 353 353 351 347 342 338 335 332 331
229 231 230 223 221 220 219 221 222 218 217 221 220 218 222 226 228 231 236 245 254 261 266 268 267 262 255 248 245 244 245 248 252 256 258 259 258 257 260 266 273 285 305 326 330 328 327 327 332 335 338 341 344 344 344 343 345 348 350 350 351 351 349 348 347 347 348 348 347 348 349 349 351 353 355 356 356 356 354 352 349 344 339 335 334
227 229 230 227 224 224 225 225 223 222 225 227 225 221 222 225 228 233 240 250 257 262 268 271 268 259 249 242 240 241 244 247 250 251 250 248 246 242 239 237 231 246 297 316 320 321 324 329 333 336 339 342 344 343 342 343 345 348 350 350 350 349 348 348 348 348 348 350 351 351 353 355 357 359 360 359 359 357 356 356 354 350 346 343 340
226 229 229 227 225 226 230 228 225 228 231 229 227 224 222 223 227 233 241 248 255 263 270 271 265 253 242 238 238 242 246 247 246 243 236 229 223 217 208 202 212 246 276 297 312 320 329 332 332 334 338 341 341 341 341 344 347 349 350 350 349 348 348 347 348 348 349 351 353 355 358 0 2 3 3 2 0 359 359 358 357 354 352 350 348
230 231 227 225 223 225 232 234 234 236 235 231 230 227 222 220 224 231 239 248 257 265 267 261 252 243 238 241 244 247 248 246 240 233 224 213 204 199 199 204 216 231 245 280 320 327 329 328 329 333 338 339 338 339 342 346 349 350 350 350 350 349 347 346 347 350 352 354 357 0 3 5 6 6 5 3 1 1 1 360 359 357 356 355 353
236 233 226 221 220 222 229 235 238 238 238 238 237 228 215 208 217 229 240 252 260 262 256 248 240 235 237 242 245 246 245 239 230 219 212 206 202 200 202 207 210 209 212 290 323 322 320 320 327 333 336 337 337 340 345 349 350 351 352 351 350 348 346 347 348 351 355 360 3 6 7 8 8 8 6 5 3 3 2 1 1 0 358 355 353
231 223 214 211 214 218 221 226 230 233 235 238 238 229 212 204 220 235 247 258 261 255 242 231 224 225 230 236 240 240 235 226 214 208 211 215 213 204 198 200 199 193 195 281 296 302 308 316 327 333 333 335 338 342 348 350 350 352 353 351 349 347 347 349 352 354 0 6 8 10 10 10 10 10 8 6 5 5 4 4 3 2 0 356 353
221 211 204 203 207 211 214 218 223 227 229 231 232 229 222 221 230 242 255 260 255 240 222 214 215 220 226 232 231 222 212 208 211 220 227 224 211 197 194 194 192 188 207 254 275 290 307 320 328 330 331 334 341 347 349 351 351 352 353 350 348 347 349 353 356 0 7 11 11 12 13 12 12 12 9 7 8 8 7 6 5 5 5 1 358
219 203 196 198 203 208 214 217 219 220 222 223 224 225 226 229 236 248 254 246 230 214 206 207 212 218 222 221 215 208 210 221 231 233 225 209 196 191 190 190 189 197 222 248 271 292 312 322 324 327 333 340 346 349 349 351 351 352 352 350 347 348 353 359 1 4 11 14 13 14 15 13 13 14 11 10 11 11 10 9 8 9 10 5 4
220 202 194 195 201 209 215 216 215 214 214 215 218 222 227 234 244 246 235 217 204 200 204 208 212 215 216 215 215 220 227 232 230 217 200 189 186 185 186 188 194 209 230 253 279 300 312 317 321 328 339 345 348 349 350 350 350 352 353 351 349 353 0 4 5 7 14 17 15 15 16 14 14 15 13 12 14 14 13 13 12 13 13 8 6
219 206 195 193 201 210 210 208 207 209 210 212 216 224 233 242 244 231 214 201 194 194 202 209 212 213 214 218 225 229 226 218 208 195 185 181 179 182 186 192 203 219 241 267 290 302 308 316 326 336 345 349 349 350 350 349 350 354 355 354 355 1 7 8 8 10 17 20 16 15 17 15 14 16 15 13 16 17 15 16 16 16 17 13 9
220 205 191 190 202 208 205 204 206 208 209 212 220 231 241 243 230 212 200 193 190 194 203 208 212 216 220 224 224 218 208 198 191 184 179 177 179 185 191 198 213 232 257 278 291 300 308 319 331 340 348 351 350 350 350 350 353 359 0 360 2 7 11 11 11 14 21 22 18 16 18 16 16 19 17 14 17 18 16 17 18 18 20 18 13
218 201 188 189 199 203 201 204 206 206 207 213 223 233 238 230 211 198 194 193 193 198 205 211 216 220 222 220 212 202 191 186 183 180 177 177 182 187 196 207 223 244 264 278 289 300 313 327 338 346 351 352 351 350 350 354 1 6 7 6 7 11 14 14 14 18 23 23 18 16 18 18 19 21 19 16 18 19 18 19 19 19 22 22 17
212 198 189 192 199 199 199 202 203 203 207 215 223 230 228 215 201 194 196 197 199 205 210 214 217 216 213 208 199 190 183 181 180 179 177 180 186 192 202 216 232 253 268 279 295 309 326 340 348 352 352 350 349 350 355 3 10 12 12 11 12 15 17 17 18 22 25 23 18 17 20 21 20 22 21 18 20 21 19 20 22 21 22 24 22
207 197 191 195 198 196 197 201 203 204 210 216 222 223 214 204 199 197 198 200 203 208 210 211 211 207 202 197 190 185 182 179 178 179 179 183 192 198 210 226 242 259 272 285 308 327 342 349 349 347 347 346 349 356 4 13 16 16 16 16 17 18 20 21 23 26 26 23 19 19 22 22 21 22 21 19 21 23 21 21 23 23 23 25 25
204 197 193 196 197 195 197 200 202 206 210 214 220 218 206 201 199 198 198 200 203 205 207 207 205 200 194 190 187 185 182 179 178 179 183 189 197 204 218 235 245 260 276 302 333 345 347 343 339 340 342 346 356 5 14 20 21 20 20 21 21 21 22 25 27 28 27 23 21 23 25 25 23 23 22 21 22 24 23 22 23 25 25 26 27
199 197 196 197 198 197 198 198 200 206 209 213 220 217 206 200 198 194 196 200 203 204 205 204 200 194 190 186 184 183 181 179 179 182 187 193 200 210 222 230 233 246 289 338 347 344 335 328 330 335 340 353 7 14 20 26 25 23 23 25 25 24 25 29 30 29 26 24 24 26 27 27 26 25 25 24 23 24 25 23 23 25 25 26 27
199 198 198 199 200 199 198 199 202 206 209 217 222 214 203 199 196 194 196 200 203 205 203 199 195 191 188 185 184 183 181 178 178 183 189 194 200 208 210 206 201 204 354 346 334 323 314 312 322 337 346 5 18 21 26 30 28 26 26 27 27 26 29 32 32 29 26 25 27 29 28 27 28 27 26 26 25 26 27 25 23 24 25 24 25
200 197 196 199 200 198 198 201 203 205 210 221 219 207 198 195 195 196 199 202 204 204 200 196 192 189 187 186 185 182 177 176 181 187 193 197 200 199 191 179 165 142 328 312 303 297 295 298 317 343 360 19 26 27 31 33 31 30 30 28 27 29 31 32 31 28 25 24 27 29 27 26 27 27 26 26 26 26 27 26 24 23 24 24 23
198 195 194 196 198 199 201 202 201 204 214 220 211 199 194 193 194 198 203 203 204 203 199 194 190 188 186 186 184 179 177 180 186 191 192 192 190 183 175 169 165 185 235 256 267 272 281 293 316 352 19 34 36 33 33 35 33 32 30 27 26 29 30 30 28 25 22 23 25 26 25 24 24 25 24 24 25 24 25 26 25 23 24 24 23
Height
3124 3127 3130 3132 3133 3134 3135 3136 3137 3139 3140 3142 3143 3143 3143 3145 3146 3147 3147 3148 3152 3153 3153 3154 3156 3157 3158 3159 3159 3161 3163 3164 3164 3165 3166 3166 3163 3162 3163 3164 3165 3166 3166 3166 3165 3165 3164 3164 3163 3163 3162 3161 3161 3160 3159 3158 3157 3157 3156 3155 3155 3154 3153 3153 3152 3151 3150 3149 3149 3148 3147 3146 3146 3145 3144 3143 3142 3142 3141 3139 3138 3137 3136 3135 3133
3123 3128 3130 3131 3131 3132 3134 3135 3137 3138 3139 3141 3143 3143 3144 3145 3146 3146 3147 3149 3153 3153 3153 3155 3156 3157 3158 3158 3159 3160 3162 3163 3163 3164 3166 3165 3162 3162 3164 3165 3165 3166 3165 3165 3165 3164 3164 3163 3163 3162 3162 3161 3160 3159 3158 3157 3157 3156 3155 3154 3154 3153 3153 3152 3151 3150 3149 3148 3147 3147 3146 3145 3144 3143 3143 3142 3141 3140 3139 3138 3137 3136 3135 3133 3132
3121 3125 3128 3129 3130 3131 3132 3134 3136 3137 3138 3140 3142 3142 3143 3144 3145 3146 3147 3148 3150 3151 3153 3157 3157 3157 3157 3159 3159 3160 3161 3163 3164 3165 3166 3165 3164 3165 3165 3165 3166 3165 3165 3165 3164 3164 3163 3163 3162 3162 3161 3160 3159 3159 3157 3157 3156 3155 3155 3154 3153 3152 3152 3151 3150 3149 3148 3147 3146 3145 3144 3144 3143 3142 3141 3140 3139 3138 3137 3136 3136 3135 3134 3132 3131
3118 3121 3125 3127 3128 3130 3131 3132 3134 3135 3137 3139 3141 3141 3141 3143 3145 3146 3147 3146 3147 3150 3154 3156 3156 3156 3158 3159 3160 3160 3162 3164 3165 3167 3168 3166 3166 3166 3165 3165 3165 3165 3165 3164 3164 3163 3163 3162 3161 3161 3160 3159 3159 3158 3157 3156 3155 3155 3154 3153 3153 3152 3151 3150 3149 3148 3147 3146 3145 3144 3143 3142 3141 3140 3140 3139 3138 3137 3136 3135 3134 3133 3132 3131 3130
3117 3117 3121 3124 3126 3128 3129 3131 3133 3135 3136 3138 3139 3139 3140 3142 3143 3145 3145 3145 3146 3149 3152 3154 3155 3157 3158 3158 3160 3162 3163 3164 3167 3168 3168 3167 3167 3166 3165 3165 3164 3164 3164 3163 3163 3162 3162 3161 3161 3160 3159 3159 3158 3157 3156 3155 3154 3154 3153 3153 3152 3151 3150 3149 3148 3147 3146 3145 3143 3142 3141 3140 3139 3138 3137 3138 3137 3135 3134 3134 3133 3131 3130 3130 3129
3117 3117 3118 3121 3124 3126 3128 3130 3132 3134 3135 3136 3138 3138 3139 3140 3141 3142 3143 3144 3146 3149 3151 3152 3155 3157 3158 3158 3160 3162 3164 3165 3166 3166 3166 3167 3166 3166 3165 3164 3164 3163 3163 3163 3162 3162 3161 3161 3160 3159 3159 3158 3157 3156 3156 3155 3154 3153 3153 3152 3151 3150 3149 3149 3148 3147 3146 3145 3143 3142 3140 3139 3138 3137 3135 3135 3135 3134 3133 3131 3131 3130 3129 3128 3128
3114 3116 3118 3120 3122 3124 3127 3130 3132 3133 3134 3135 3136 3138 3138 3139 3140 3140 3142 3144 3146 3149 3150 3152 3154 3156 3157 3158 3160 3162 3164 3164 3164 3165 3166 3166 3166 3165 3164 3163 3163 3163 3162 3162 3162 3161 3161 3160 3159 3159 3158 3157 3157 3156 3155 3154 3153 3153 3152 3151 3150 3149 3148 3148 3147 3146 3145 3144 3142 3141 3140 3138 3137 3135 3134 3132 3131 3132 3132 3130 3128 3128 3127 3126 3125
3111 3114 3117 3119 3121 3123 3126 3129 3131 3132 3132 3133 3135 3136 3137 3138 3139 3140 3141 3143 3146 3148 3149 3151 3153 3155 3156 3158 3160 3163 3163 3162 3163 3164 3165 3165 3164 3164 3163 3162 3162 3162 3161 3161 3161 3160 3160 3159 3159 3158 3157 3157 3156 3155 3154 3153 3153 3152 3151 3150 3149 3148 3147 3146 3146 3145 3144 3143 3142 3140 3139 3137 3136 3134 3133 3130 3128 3128 3129 3129 3127 3125 3125 3124 3123
3112 3114 3116 3118 3120 3122 3126 3128 3129 3130 3131 3132 3133 3135 3136 3137 3138 3139 3140 3142 3144 3147 3148 3150 3151 3153 3156 3158 3161 3162 3161 3161 3163 3163 3164 3164 3163 3162 3162 3161 3161 3161 3160 3160 3160 3160 3159 3158 3158 3157 3157 3156 3155 3155 3154 3153 3152 3151 3150 3149 3148 3147 3146 3145 3144 3143 3142 3141 3140 3139 3137 3136 3135 3133 3131 3129 3127 3125 3124 3125 3124 3123 3122 3122 3121
3113 3115 3116 3117 3119 3122 3124 3126 3128 3129 3130 3131 3132 3133 3135 3136 3137 3137 3138 3140 3143 3145 3147 3148 3150 3152 3155 3157 3159 3159 3160 3160 3161 3162 3163 3162 3162 3161 3161 3160 3160 3160 3160 3160 3159 3159 3158 3158 3157 3156 3156 3155 3154 3153 3152 3151 3150 3150 3149 3148 3147 3146 3145 3144 3143 3142 3140 3139 3137 3136 3135 3134 3133 3132 3130 3128 3126 3123 3121 3121 3121 3119 3118 3118 3118
3112 3114 3115 3117 3119 3120 3123 3125 3127 3128 3129 3130 3131 3132 3133 3134 3135 3136 3137 3139 3141 3143 3145 3147 3149 3152 3154 3155 3156 3157 3158 3159 3160 3161 3161 3161 3160 3160 3160 3159 3159 3159 3159 3159 3159 3158 3157 3156 3156 3155 3154 3153 3153 3152 3151 3150 3149 3148 3147 3146 3145 3145 3144 3142 3141 3140 3139 3137 3136 3134 3132 3131 3130 3128 3127 3125 3123 3121 3119 3118 3117 3116 3115 3115 3115
3111 3113 3115 3116 3117 3119 3122 3124 3126 3127 3127 3128 3129 3130 3131 3132 3134 3136 3137 3139 3141 3142 3144 3146 3148 3150 3152 3153 3154 3155 3157 3158 3159 3159 3159 3159 3159 3159 3158 3158 3158 3158 3159 3158 3158 3157 3156 3155 3154 3154 3153 3152 3151 3150 3149 3148 3147 3146 3145 3145 3144 3143 3142 3141 3139 3138 3137 3135 3134 3132 3130 3129 3127 3125 3124 3122 3120 3118 3116 3114 3114 3113 3112 3112 3112
3109 3111 3114 3115 3117 3119 3121 3124 3125 3125 3126 3127 3128 3128 3129 3131 3133 3135 3137 3138 3140 3141 3143 3145 3147 3149 3150 3151 3152 3154 3156 3157 3157 3157 3157 3158 3158 3158 3158 3158 3158 3158 3158 3157 3156 3155 3155 3154 3153 3152 3151 3150 3149 3149 3148 3147 3146 3145 3144 3143 3142 3141 3140 3138 3137 3136 3134 3133 3131 3130 3128 3126 3125 3123 3121 3119 3117 3115 3113 3110 3109 3109 3107 3107 3108
3107 3109 3112 3114 3117 3120 3121 3122 3123 3124 3125 3126 3127 3127 3128 3130 3132 3134 3136 3137 3139 3141 3143 3145 3146 3147 3149 3150 3151 3153 3154 3155 3156 3156 3156 3157 3157 3157 3157 3157 3157 3157 3156 3156 3155 3154 3153 3152 3151 3151 3150 3149 3148 3147 3146 3145 3144 3143 3142 3141 3140 3139 3137 3136 3134 3133 3131 3130 3128 3127 3125 3124 3122 3120 3118 3116 3114 3112 3110 3108 3106 3105 3104 3103 3103
3106 3108 3110 3113 3116 3118 3119 3120 3121 3122 3124 3125 3126 3127 3128 3129 3131 3133 3135 3137 3139 3141 3142 3144 3145 3146 3148 3149 3151 3152 3153 3154 3154 3155 3155 3156 3156 3156 3156 3155 3155 3155 3155 3154 3153 3153 3152 3151 3150 3149 3148 3148 3147 3146 3145 3144 3142 3141 3140 3139 3137 3136 3134 3133 3131 3130 3128 3127 3125 3124 3122 3121 3119 3117 3116 3114 3112 3109 3107 3105 3102 3100 3099 3098 3099
3104 3106 3108 3111 3114 3117 3118 3120 3120 3121 3122 3124 3125 3126 3128 3129 3131 3133 3135 3136 3139 3140 3142 3143 3144 3145 3147 3148 3150 3151 3152 3153 3153 3154 3154 3154 3155 3154 3154 3154 3154 3154 3153 3153 3152 3151 3150 3149 3149 3148 3147 3146 3145 3144 3143 3142 3141 3139 3138 3137 3135 3133 3132 3130 3128 3127 3125 3124 3122 3121 3119 3117 3116 3115 3113 3111 3109 3107 3104 3102 3100 3096 3093 3092 3092
3103 3104 3106 3108 3112 3115 3117 3118 3118 3120 3121 3122 3124 3125 3127 3129 3130 3132 3134 3136 3137 3139 3140 3142 3143 3144 3146 3147 3149 3150 3151 3152 3152 3153 3153 3153 3153 3153 3153 3153 3153 3152 3152 3151 3150 3150 3149 3148 3147 3147 3146 3145 3144 3142 3141 3140 3139 3137 3136 3134 3132 3130 3129 3127 3125 3124 3122 3121 3119 3117 3116 3114 3113 3111 3109 3107 3105 3104 3102 3100 3097 3094 3091 3087 3085
3101 3102 3104 3107 3111 3113 3114 3115 3117 3119 3120 3121 3123 3124 3126 3127 3129 3131 3133 3135 3136 3138 3139 3141 3142 3143 3145 3146 3148 3149 3150 3150 3151 3151 3151 3151 3152 3151 3152 3151 3151 3151 3150 3150 3149 3148 3148 3147 3146 3145 3144 3143 3142 3141 3139 3138 3136 3135 3133 3131 3129 3127 3126 3124 3122 3121 3119 3118 3116 3114 3113 3111 3110 3108 3106 3104 3102 3100 3099 3097 3094 3092 3089 3085 3082
3099 3101 3103 3106 3108 3110 3111 3113 3115 3117 3118 3120 3122 3123 3124 3126 3128 3130 3132 3133 3135 3137 3138 3140 3141 3143 3144 3145 3147 3148 3148 3149 3149 3150 3150 3150 3150 3150 3150 3150 3150 3149 3149 3148 3147 3147 3146 3145 3145 3144 3143 3141 3140 3139 3137 3136 3134 3132 3130 3128 3126 3125 3123 3122 3120 3119 3117 3116 3114 3112 3111 3109 3107 3105 3103 3101 3099 3097 3095 3093 3091 3089 3087 3083 3080
3097 3100 3102 3104 3106 3107 3109 3112 3114 3115 3117 3119 3120 3122 3124 3126 3127 3129 3130 3132 3133 3135 3137 3139 3140 3141 3143 3144 3145 3146 3147 3148 3148 3148 3148 3148 3149 3149 3149 3148 3148 3148 3147 3146 3146 3145 3144 3144 3143 3142 3141 3139 3138 3137 3135 3133 3131 3130 3128 3126 3125 3123 3122 3120 3119 3117 3116 3114 3112 3110 3108 3107 3105 3103 3101 3098 3096 3094 3092 3090 3088 3086 3084 3080 3077
3096 3098 3101 3102 3103 3106 3108 3110 3112 3114 3115 3117 3119 3121 3123 3124 3126 3128 3129 3131 3132 3134 3135 3137 3138 3140 3141 3142 3143 3144 3145 3146 3146 3146 3146 3147 3147 3147 3147 3147 3146 3146 3145 3144 3144 3143 3143 3142 3141 3140 3139 3138 3136 3135 3133 3131 3129 3128 3126 3125 3123 3122 3121 3119 3118 3116 3115 3113 3111 3109 3107 3105 3102 3100 3098 3096 3094 3092 3089 3087 3085 3082 3081 3077 3074
3095 3097 3099 3100 3102 3104 3107 3109 3111 3112 3113 3115 3118 3120 3122 3123 3125 3126 3128 3130 3131 3133 3134 3135 3137 3138 3140 3141 3142 3142 3143 3144 3144 3144 3145 3145 3145 3145 3145 3145 3144 3144 3143 3143 3142 3142 3141 3140 3140 3138 3137 3136 3134 3133 3131 3129 3128 3126 3125 3124 3122 3121 3120 3118 3117 3115 3113 3111 3109 3107 3105 3103 3100 3098 3095 3093 3091 3089 3086 3084 3082 3079 3077 3075 3071
3093 3095 3097 3099 3100 3103 3106 3107 3109 3110 3112 3114 3117 3119 3120 3122 3123 3125 3127 3129 3130 3131 3133 3134 3135 3137 3138 3139 3140 3140 3141 3142 3142 3142 3143 3143 3143 3143 3143 3143 3142 3142 3141 3141 3140 3140 3139 3139 3138 3137 3136 3134 3133 3131 3130 3128 3127 3125 3124 3123 3121 3120 3119 3117 3115 3113 3112 3109 3107 3105 3103 3101 3098 3095 3093 3091 3088 3086 3084 3081 3079 3076 3073 3071 3068
3091 3093 3095 3097 3098 3102 3104 3105 3107 3109 3111 3113 3115 3117 3119 3120 3122 3124 3126 3127 3128 3129 3131 3132 3133 3134 3135 3136 3137 3137 3138 3139 3140 3140 3140 3141 3141 3141 3141 3140 3140 3140 3140 3139 3139 3138 3137 3137 3136 3135 3134 3132 3131 3130 3128 3127 3126 3124 3123 3121 3120 3119 3117 3115 3114 3112 3110 3108 3105 3103 3101 3098 3096 3093 3090 3088 3086 3083 3081 3078 3075 3073 3070 3067 3065
3088 3091 3093 3095 3097 3099 3100 3102 3106 3108 3109 3111 3113 3115 3117 3119 3121 3122 3124 3125 3126 3127 3129 3130 3131 3132 3133 3133 3134 3135 3136 3136 3137 3137 3138 3138 3138 3139 3139 3138 3138 3138 3138 3137 3137 3136 3135 3135 3134 3133 3132 3130 3129 3128 3127 3126 3124 3123 3122 3120 3119 3117 3116 3114 3112 3110 3108 3106 3103 3101 3098 3095 3093 3090 3087 3085 3083 3080 3077 3074 3071 3069 3066 3063 3061
3086 3088 3091 3093 3094 3096 3098 3101 3104 3106 3107 3109 3112 3114 3116 3118 3119 3121 3122 3123 3124 3126 3127 3128 3129 3130 3130 3131 3132 3133 3133 3134 3135 3135 3136 3136 3136 3137 3137 3137 3136 3136 3136 3135 3135 3134 3134 3133 3132 3131 3130 3129 3128 3127 3126 3124 3123 3122 3120 3119 3118 3116 3114 3112 3111 3109 3106 3104 3102 3099 3096 3093 3090 3087 3084 3081 3079 3076 3073 3070 3067 3064 3062 3059 3056
3084 3087 3089 3090 3092 3094 3097 3099 3102 3103 3106 3108 3111 3114 3115 3116 3118 3119 3121 3122 3123 3124 3125 3126 3127 3128 3128 3129 3130 3130 3131 3132 3133 3133 3134 3134 3135 3135 3135 3135 3135 3134 3134 3133 3133 3132 3132 3131 3130 3129 3129 3128 3127 3126 3125 3123 3122 3121 3120 3118 3117 3115 3113 3111 3109 3107 3105 3102 3100 3097 3094 3091 3088 3084 3081 3077 3075 3072 3070 3067 3063 3060 3057 3054 3051
3083 3085 3087 3088 3090 3092 3094 3097 3099 3102 3105 3108 3111 3113 3115 3115 3117 3119 3120 3121 3122 3122 3123 3124 3125 3125 3126 3127 3127 3128 3129 3130 3130 3131 3132 3132 3133 3133 3133 3133 3133 3132 3132 3132 3131 3131 3130 3129 3129 3128 3127 3126 3126 3125 3124 3123 3122 3121 3119 3117 3116 3114 3112 3110 3108 3106 3104 3101 3098 3096 3093 3090 3086 3082 3078 3075 3071 3068 3065 3063 3059 3056 3053 3050 3046
3081 3083 3085 3087 3088 3090 3092 3095 3097 3100 3104 3109 3111 3113 3114 3115 3116 3118 3119 3120 3121 3121 3122 3122 3123 3124 3124 3125 3125 3126 3127 3127 3128 3129 3130 3130 3131 3131 3131 3131 3131 3131 3130 3130 3130 3129 3129 3128 3128 3127 3126 3126 3125 3124 3123 3122 3121 3120 3118 3117 3115 3113 3111 3109 3107 3104 3102 3100 3097 3095 3092 3089 3086 3082 3078 3074 3070 3065 3061 3058 3055 3052 3049 3046 3043
3080 3082 3083 3085 3087 3089 3091 3093 3095 3099 3104 3108 3110 3111 3112 3113 3115 3116 3117 3119 3120 3120 3121 3121 3122 3122 3122 3123 3124 3124 3125 3126 3127 3128 3128 3129 3129 3129 3129 3129 3129 3129 3129 3128 3128 3128 3127 3127 3127 3126 3126 3125 3124 3123 3122 3121 3120 3119 3118 3116 3114 3113 3110 3108 3106 3104 3101 3099 3096 3094 3091 3089 3086 3083 3079 3075 3070 3065 3060 3056 3051 3047 3044 3040 3037
3078 3080 3081 3083 3085 3087 3089 3092 3095 3099 3103 3104 3105 3107 3109 3111 3113 3114 3116 3117 3118 3119 3120 3120 3120 3120 3120 3121 3122 3123 3124 3125 3126 3127 3127 3127 3127 3127 3127 3127 3127 3127 3127 3127 3127 3127 3126 3126 3126 3125 3125 3124 3123 3122 3121 3120 3119 3118 3117 3115 3113 3112 3110 3107 3105 3103 3101 3098 3096 3093 3090 3088 3085 3081 3078 3074 3070 3065 3061 3056 3051 3047 3042 3038 3033
3076 3077 3079 3081 3084 3086 3088 3091 3093 3097 3099 3100 3102 3105 3107 3109 3111 3113 3115 3116 3117 3117 3118 3118 3118 3118 3118 3119 3120 3121 3122 3124 3124 3125 3125 3125 3125 3125 3125 3125 3125 3125 3126 3126 3125 3126 3126 3125 3125 3124 3124 3123 3122 3121 3120 3119 3118 3117 3116 3114 3113 3111 3109 3107 3105 3102 3100 3098 3095 3092 3089 3086 3083 3079 3075 3072 3068 3064 3060 3056 3052 3047 3043 3038 3034
3074 3075 3076 3079 3082 3084 3087 3090 3091 3094 3097 3099 3101 3104 3106 3107 3109 3111 3113 3114 3115 3115 3116 3116 3116 3115 3116 3117 3118 3119 3121 3122 3122 3123 3123 3123 3124 3124 3124 3124 3124 3124 3124 3124 3124 3124 3124 3124 3124 3124 3123 3122 3121 3120 3119 3118 3117 3116 3115 3113 3112 3110 3108 3106 3104 3102 3099 3097 3094 3091 3088 3085 3081 3077 3073 3069 3065 3062 3058 3055 3051 3047 3043 3038 3034
3072 3074 3075 3077 3080 3082 3085 3088 3091 3094 3097 3100 3101 3103 3104 3105 3107 3109 3111 3112 3112 3113 3113 3113 3113 3113 3114 3115 3116 3118 3119 3120 3120 3121 3121 3122 3122 3122 3122 3122 3123 3123 3123 3123 3123 3123 3123 3123 3123 3123 3122 3121 3121 3120 3119 3118 3116 3115 3114 3112 3110 3109 3107 3105 3103 3101 3099 3096 3093 3090 3087 3083 3079 3075 3071 3067 3063 3059 3055 3051 3048 3044 3040 3036 3032
3070 3072 3073 3075 3078 3081 3084 3087 3091 3095 3097 3099 3100 3101 3102 3103 3105 3107 3109 3110 3110 3111 3111 3111 3111 3111 3112 3114 3115 3116 3117 3118 3119 3119 3119 3120 3120 3121 3121 3121 3122 3122 3122 3122 3122 3122 3122 3123 3122 3122 3121 3121 3120 3119 3118 3117 3116 3114 3113 3111 3110 3108 3106 3104 3102 3100 3098 3095 3092 3088 3085 3081 3077 3074 3070 3066 3062 3058 3053 3049 3045 3041 3037 3033 3029
3068 3069 3071 3074 3077 3081 3084 3087 3091 3093 3095 3097 3098 3097 3098 3100 3103 3104 3106 3107 3108 3109 3109 3109 3109 3110 3111 3112 3114 3115 3116 3116 3117 3118 3118 3119 3119 3120 3120 3120 3121 3121 3121 3121 3121 3121 3122 3122 3122 3121 3121 3120 3119 3118 3117 3116 3115 3113 3112 3110 3109 3107 3105 3104 3102 3099 3097 3094 3090 3087 3083 3080 3076 3072 3069 3065 3061 3057 3053 3048 3044 3040 3036 3032 3028
3067 3068 3071 3074 3078 3081 3084 3086 3088 3090 3092 3094 3094 3093 3094 3098 3100 3102 3104 3105 3106 3106 3106 3106 3107 3108 3110 3111 3113 3114 3115 3116 3116 3117 3118 3118 3118 3119 3119 3120 3120 3120 3120 3120 3121 3121 3121 3122 3121 3121 3120 3119 3118 3118 3116 3115 3114 3113 3111 3110 3108 3107 3105 3103 3101 3098 3096 3092 3089 3086 3082 3079 3076 3072 3069 3065 3061 3057 3053 3048 3044 3040 3036 3032 3028
3066 3067 3070 3073 3076 3079 3081 3083 3085 3087 3089 3091 3092 3092 3094 3096 3099 3101 3102 3103 3103 3103 3104 3105 3106 3108 3109 3111 3112 3113 3114 3115 3116 3116 3117 3118 3118 3118 3119 3119 3119 3119 3119 3120 3120 3121 3121 3121 3121 3120 3119 3119 3118 3117 3115 3114 3113 3112 3111 3109 3108 3106 3104 3102 3100 3097 3094 3091 3088 3085 3082 3079 3076 3072 3069 3065 3061 3057 3053 3048 3044 3040 3036 3032 3027
3064 3066 3068 3071 3074 3076 3078 3080 3082 3084 3087 3089 3091 3093 3094 3095 3097 3098 3099 3100 3100 3101 3102 3104 3105 3107 3108 3109 3111 3112 3113 3114 3115 3116 3116 3117 3117 3118 3118 3119 3119 3119 3119 3120 3120 3121 3121 3120 3120 3119 3119 3118 3117 3116 3115 3114 3113 3111 3110 3109 3108 3106 3104 3102 3099 3096 3093 3091 3088 3085 3082 3079 3076 3073 3070 3066 3062 3058 3053 3049 3044 3040 3036 3032 3027
3062 3064 3067 3070 3072 3074 3076 3077 3079 3082 3084 3087 3089 3091 3092 3093 3095 3095 3096 3097 3098 3100 3101 3103 3104 3106 3107 3108 3109 3111 3112 3113 3114 3115 3115 3116 3117 3117 3118 3118 3118 3119 3119 3120 3120 3120 3120 3120 3119 3119 3118 3117 3116 3115 3114 3113 3112 3111 3110 3109 3107 3106 3103 3101 3098 3096 3093 3091 3088 3085 3082 3080 3077 3074 3071 3067 3063 3058 3054 3050 3045 3040 3035 3032 3028
3060 3062 3065 3067 3070 3072 3074 3076 3078 3080 3083 3085 3087 3089 3090 3091 3092 3093 3094 3095 3097 3099 3100 3102 3103 3105 3106 3107 3109 3110 3111 3112 3113 3113 3114 3115 3116 3117 3117 3117 3118 3119 3119 3120 3120 3120 3119 3119 3119 3118 3117 3116 3115 3114 3114 3113 3112 3111 3110 3109 3107 3105 3102 3100 3098 3095 3093 3090 3088 3086 3083 3080 3078 3075 3072 3068 3064 3060 3056 3051 3046 3042 3037 3034 3029
3058 3060 3063 3066 3068 3070 3072 3074 3076 3079 3081 3083 3085 3087 3088 3089 3090 3091 3093 3094 3096 3098 3099 3101 3102 3104 3105 3106 3107 3108 3109 3110 3111 3112 3113 3114 3115 3116 3116 3117 3118 3119 3119 3119 3119 3119 3119 3119 3118 3117 3117 3116 3115 3114 3113 3113 3112 3111 3110 3108 3106 3104 3101 3099 3098 3095 3093 3090 3088 3086 3083 3081 3078 3075 3072 3069 3064 3061 3057 3053 3048 3044 3040 3036 3031
3056 3058 3061 3064 3067 3069 3071 3073 3075 3077 3080 3082 3084 3085 3086 3087 3088 3090 3091 3093 3095 3096 3098 3100 3101 3102 3104 3105 3106 3107 3108 3109 3111 3112 3113 3113 3114 3115 3116 3117 3118 3118 3118 3118 3118 3118 3118 3118 3117 3117 3116 3115 3115 3114 3114 3113 3112 3111 3109 3107 3105 3103 3101 3099 3097 3095 3092 3090 3089 3086 3084 3081 3079 3075 3072 3069 3065 3062 3058 3054 3050 3046 3042 3038 3033
3054 3057 3059 3062 3065 3068 3070 3072 3074 3077 3079 3081 3082 3084 3085 3086 3087 3089 3090 3092 3093 3095 3097 3098 3100 3101 3102 3103 3104 3106 3107 3109 3110 3111 3112 3113 3114 3115 3116 3117 3117 3117 3118 3118 3118 3117 3117 3117 3116 3116 3115 3115 3114 3114 3114 3113 3111 3110 3108 3107 3105 3103 3101 3099 3097 3095 3093 3091 3089 3087 3085 3082 3079 3076 3073 3070 3066 3063 3060 3056 3052 3048 3043 3039 3035
3053 3055 3057 3061 3064 3066 3069 3071 3074 3076 3078 3080 3081 3083 3084 3085 3086 3088 3089 3091 3092 3094 3095 3097 3098 3099 3101 3102 3104 3105 3106 3108 3109 3110 3111 3112 3113 3114 3115 3116 3117 3117 3117 3117 3117 3116 3116 3115 3115 3115 3115 3115 3115 3114 3113 3112 3111 3109 3108 3106 3105 3103 3101 3100 3098 3095 3093 3091 3090 3088 3085 3082 3080 3077 3075 3072 3068 3064 3061 3057 3053 3049 3044 3040 3036
3051 3054 3056 3059 3062 3065 3067 3070 3073 3075 3077 3079 3080 3081 3082 3084 3085 3086 3088 3089 3091 3092 3094 3095 3096 3098 3099 3101 3103 3104 3106 3107 3108 3109 3110 3112 3113 3114 3115 3115 3116 3116 3116 3116 3115 3115 3115 3115 3115 3115 3115 3115 3115 3114 3113 3111 3110 3109 3108 3106 3105 3103 3102 3100 3098 3095 3093 3092 3091 3088 3085 3083 3080 3078 3076 3073 3069 3066 3062 3059 3055 3050 3046 3041 3037
3050 3052 3055 3057 3059 3062 3065 3068 3071 3073 3075 3077 3078 3080 3081 3082 3084 3085 3086 3088 3089 3091 3092 3094 3095 3097 3098 3100 3102 3103 3105 3106 3107 3109 3110 3111 3112 3113 3114 3115 3115 3115 3115 3115 3114 3114 3114 3114 3115 3115 3115 3115 3114 3113 3112 3111 3110 3109 3108 3106 3105 3104 3102 3100 3098 3096 3095 3093 3092 3089 3086 3084 3082 3079 3077 3074 3071 3067 3064 3060 3056 3052 3048 3044 3040
3049 3051 3053 3056 3058 3061 3064 3067 3069 3072 3074 3076 3077 3078 3079 3081 3082 3083 3085 3086 3088 3090 3091 3093 3094 3096 3097 3099 3101 3103 3104 3105 3107 3108 3110 3111 3112 3113 3114 3114 3114 3114 3114 3114 3113 3114 3114 3114 3115 3115 3114 3114 3113 3112 3111 3110 3109 3109 3108 3106 3105 3104 3102 3100 3099 3097 3096 3094 3092 3089 3087 3085 3083 3081 3078 3075 3072 3068 3065 3062 3058 3054 3050 3047 3043
3047 3049 3052 3055 3058 3060 3063 3066 3068 3071 3072 3074 3075 3077 3078 3079 3081 3082 3084 3085 3087 3088 3090 3091 3093 3095 3097 3099 3101 3102 3103 3105 3107 3108 3110 3111 3112 3112 3112 3113 3113 3113 3113 3113 3113 3114 3114 3114 3114 3114 3114 3113 3112 3112 3111 3110 3109 3109 3108 3107 3106 3104 3103 3101 3099 3098 3096 3095 3093 3090 3088 3086 3084 3082 3079 3076 3073 3070 3066 3063 3060 3056 3052 3049 3045
3045 3048 3051 3054 3057 3059 3062 3064 3067 3069 3071 3072 3074 3075 3076 3078 3079 3081 3083 3084 3086 3087 3089 3090 3092 3094 3096 3098 3100 3101 3103 3105 3106 3108 3109 3110 3110 3111 3111 3112 3112 3112 3112 3113 3113 3114 3114 3114 3114 3114 3113 3113 3112 3111 3111 3110 3109 3109 3108 3107 3106 3105 3103 3101 3099 3098 3097 3095 3093 3091 3089 3087 3085 3082 3080 3077 3074 3071 3068 3065 3061 3058 3054 3050 3047
3044 3046 3049 3052 3055 3057 3060 3063 3065 3067 3069 3071 3072 3073 3075 3076 3079 3081 3082 3083 3085 3086 3088 3090 3092 3094 3096 3097 3099 3101 3102 3104 3105 3107 3108 3109 3110 3110 3110 3111 3111 3112 3112 3113 3113 3114 3114 3114 3113 3113 3112 3112 3111 3111 3111 3110 3109 3109 3108 3107 3106 3104 3103 3101 3100 3099 3098 3096 3093 3091 3089 3087 3085 3083 3080 3078 3075 3072 3069 3066 3063 3060 3056 3053 3049